Flag for Chile Weather past 2 weeks in Valdivia, Chile

Now
57 °F

Drizzle. Low clouds.


Feels Like: 57 °F
Forecast: 55 / 67 °F
Wind: 5 mph from Northwest

Location: Puerto Montt Airport

Current Time: Dec 29, 2014 at 9:36:38 AM

Latest Report: Dec 29, 2014 at 9:00 AM


Visibility: 2 mi

Pressure: 29.95 "Hg

Humidity: 94%

Dew point: 55 °F

Location of ValdiviaLocation

Historic Weather in Valdivia — Graph

°F

Valdivia temperature yesterday

Maximum temperature yesterday: 70 °F (at 3:00 PM)
Minimum temperature yesterday: 59 °F (at 2:00 AM)
Average temperature yesterday: 63 °F

Past Weeks' High & Low Weather Summary

 TemperatureHumidityPressure
High73 °F (Dec 14, 2:00 PM)100% (Dec 19, 6:00 AM)30.33 "Hg (Dec 19, 6:00 AM)
Low39 °F (Dec 20, 3:00 AM)40% (Dec 25, 4:00 PM)29.71 "Hg (Dec 19, 6:00 AM)
Average56 °F77%30.05 "Hg
* Reported Dec 14 8:00 AM — Dec 29 8:00 AM, Valdivia, Weather by CustomWeather, © 2014

Note: Actual official high and low records may vary slightly from our data, if they occured in-between our weather recording intervals... More about our weather records

Advertising

Valdivia weather history for previous 24 hours

 ConditionsComfort  
Time TempWeatherWind HumidityBarometerVisibility
8:00 AM
Dec 29
55 °FMore clouds than sun.5 mph100%29.95 "HgN/A
7:00 AM55 °FPartly sunny.5 mph94%29.92 "HgN/A
6:00 AM55 °FFog.3 mph94%29.92 "Hg1 mi
5:00 AM55 °FFog.3 mph94%29.89 "Hg1 mi
4:00 AM55 °FFog.No wind94%29.89 "Hg1 mi
3:00 AM55 °FPassing clouds.No wind94%29.89 "HgN/A
2:00 AM57 °FPassing clouds.No wind94%29.92 "HgN/A
1:00 AM57 °FPassing clouds.No wind94%29.92 "HgN/A
12:00 AM57 °FPassing clouds.5 mph94%29.92 "HgN/A
11:00 PM
Dec 28
59 °FPassing clouds.No wind88%29.92 "HgN/A
10:00 PM61 °FLight rain. Overcast.7 mph83%29.92 "HgN/A
9:00 PM61 °FOvercast.7 mph83%29.89 "HgN/A
8:00 PM64 °FLight rain. Overcast.7 mph68%29.89 "Hg5 mi
7:00 PM66 °FPartly sunny.10 mph64%29.86 "HgN/A
6:00 PM68 °FPartly sunny.16 mph56%29.86 "HgN/A
5:00 PM66 °FPartly sunny.7 mph68%29.86 "HgN/A
4:00 PM70 °FOvercast.10 mph53%29.86 "HgN/A
3:00 PM70 °FOvercast.10 mph53%29.86 "HgN/A
2:00 PM68 °FPartly sunny.14 mph56%29.86 "HgN/A
1:00 PM66 °FPartly sunny.13 mph64%29.89 "HgN/A
12:00 PM64 °FMore clouds than sun.13 mph73%29.89 "HgN/A
11:00 AM63 °FMore clouds than sun.10 mph83%29.89 "HgN/A
10:00 AM61 °FLight rain. More clouds than sun.10 mph94%29.89 "HgN/A
9:00 AM59 °FLight rain. Mostly cloudy.7 mph94%29.89 "Hg5 mi
Weather by CustomWeather, © 2014

See weather overviewHow to use our weather pages